EDT,Max TemperatureF,Mean TemperatureF,Min TemperatureF,Max Dew PointF,MeanDew PointF,Min DewpointF,Max Humidity, Mean Humidity, Min Humidity, Max Sea Level PressureIn, Mean Sea Level PressureIn, Min Sea Level PressureIn, Max VisibilityMiles, Mean VisibilityMiles, Min VisibilityMiles, Max Wind SpeedMPH, Mean Wind SpeedMPH, Max Gust SpeedMPH,PrecipitationIn, CloudCover, Events, WindDirDegrees
2012-9-1,80,76,72,73,70,69,87,81,74,30.09,30.04,29.98,10,10,6,15,5,22,T,4,Rain,94
2012-9-2,82,76,69,72,69,66,90,80,69,30.01,29.93,29.89,10,10,6,20,10,24,T,5,,95
2012-9-3,90,79,68,73,68,64,84,70,55,29.93,29.90,29.86,10,10,10,13,5,17,0.00,1,,56
2012-9-4,86,78,70,72,69,67,93,76,59,29.93,29.88,29.85,10,9,2,17,4,22,0.18,3,Rain,336
2012-9-5,79,73,66,67,65,63,93,78,62,29.93,29.86,29.79,10,9,0,24,7,32,0.49,3,Fog-Rain-Thunderstorm,229
2012-9-6,82,72,62,69,62,56,93,68,42,29.93,29.90,29.83,10,9,5,14,5,18,0.00,1,,275
2012-9-7,82,71,59,65,61,56,90,71,51,29.94,29.83,29.74,10,9,2,18,6,24,0.16,4,Rain,13
2012-9-8,68,62,55,56,53,49,93,73,52,29.87,29.83,29.77,10,10,7,23,9,28,0.02,5,Rain,319
2012-9-9,72,61,50,57,53,47,100,72,44,30.14,29.98,29.86,10,8,2,21,7,18,0.31,4,Rain,346
2012-9-10,74,61,48,49,46,44,93,64,35,30.25,30.19,30.14,10,10,10,10,4,14,0.00,0,,146
2012-9-11,81,66,51,56,51,47,83,60,36,30.21,30.16,30.11,10,10,10,20,8,25,0.00,0,,194
2012-9-12,84,70,56,58,54,51,80,59,37,30.21,30.17,30.13,10,10,10,16,7,25,0.00,0,,193
2012-9-13,80,69,57,63,58,53,78,66,54,30.29,30.22,30.18,10,10,7,18,9,23,0.14,6,Rain,269
2012-9-14,72,62,51,55,49,41,93,64,34,30.34,30.31,30.29,10,10,4,15,5,20,0.08,4,Rain,355
2012-9-15,76,63,49,51,47,44,86,60,33,30.34,30.27,30.18,10,10,6,10,2,14,0.00,0,,143
2012-9-16,76,62,48,52,48,42,86,59,31,30.16,30.09,30.01,10,10,9,13,3,15,0.00,0,,219
2012-9-17,75,65,54,60,54,47,87,72,57,30.01,29.88,29.73,10,10,10,14,5,20,0.01,2,,211
2012-9-18,62,55,47,59,50,35,90,67,43,30.03,29.80,29.70,10,9,2,26,10,33,0.38,7,Rain,343
2012-9-19,69,56,42,41,39,37,83,58,32,30.12,30.03,29.92,10,10,10,22,11,29,0.00,2,,199
2012-9-20,69,60,50,51,44,40,77,57,37,29.93,29.90,29.88,10,10,10,22,8,29,0.00,2,,244
2012-9-21,67,57,47,51,44,38,96,65,34,29.96,29.90,29.81,10,10,8,16,6,20,0.13,4,Rain,238
2012-9-22,55,49,43,49,46,41,93,82,71,30.14,29.90,29.78,10,7,0,28,9,36,0.13,5,Fog-Rain-Thunderstorm,255
2012-9-23,57,49,40,40,37,34,89,66,43,30.27,30.22,30.14,10,10,10,20,7,25,0.00,3,,277
2012-9-24,67,52,37,38,33,29,85,55,24,30.25,30.13,29.96,10,10,10,20,10,31,0.00,0,,219
2012-9-25,72,61,50,59,49,36,90,69,47,29.97,29.91,29.86,10,10,8,17,8,21,0.00,4,,200
2012-9-26,71,62,53,63,58,47,97,75,53,30.15,29.97,29.88,10,5,0,15,7,20,0.00,5,Fog,265
2012-9-27,71,59,46,53,49,43,86,70,53,30.20,30.16,30.13,10,10,10,14,4,17,0.00,4,,13
2012-9-28,69,59,48,52,49,45,89,69,48,30.16,30.13,30.09,10,10,7,14,5,17,0.00,4,,85
2012-9-29,71,57,42,51,44,40,93,65,36,30.13,30.07,29.98,10,9,2,15,5,20,0.00,0,,301
2012-9-30,68,55,41,49,43,39,96,67,37,29.98,29.95,29.93,10,8,0,14,5,18,0.00,0,Fog,22